Location: Bas Lanzent
(48.1360°N, 3.5871°W)
Time: 15:38:58
(UTC+00:00)

Cosmos 1400 Rocket - Pass Details

Date: 18 February 2020
Orbit: 521 x 568 km, 81.2° (Epoch: 07 April)

Event Time Altitude Azimuth Distance (km) Brightness Sun altitude
Rises 05:47:13 0° 170° (S) 2,694 6.5 -15.6°
Reaches altitude 10° 05:49:26 10° 163° (SSE) 1,815 5.7 -15.2°
Maximum altitude 05:53:09 38° 94° (E) 851 4.4 -14.6°
Drops below altitude 10° 05:56:58 10° 26° (NNE) 1,856 5.8 -14.0°
Sets 05:59:16 0° 19° (NNE) 2,764 6.6 -13.6°
